User: anonymous   Login
Location: ??
(34.7252°N, 135.5457°E)
Time: 03:25:55
(UTC+00:00)
Language:

Hubble Space Telescope - Orbit

View from above orbital plane
View from above orbital plane
View from above satellite
View from above satellite

Ground track
Ground track

The orbit data is extracted from the following two-line orbital elements,

1 20580U 90037B   20332.68777196  .00000933  00000-0  45721-4 0  9993
2 20580  28.4708 319.9558 0002862  53.7410 109.2505 15.09489292480748
Epoch (UTC): 27 November 2020 16:30:23
Eccentricity: 0.0002862
inclination: 28.4708°
perigee height: 536 km
apogee height: 540 km
right ascension of ascending node: 319.9558°
argument of perigee: 53.7410°
revolutions per day: 15.09489292
mean anomaly at epoch: 109.2505°
orbit number at epoch: 48074

The dashed part of the orbit path shows where the satellite is in the earth's shadow,  

DLR